User: anonymous   Login
Location: Bangkok
(13.7500°N, 100.5170°E)
Time: 22:19:12
(UTC+07:00)
Language:

ERBS - Orbit

View from above orbital plane
View from above orbital plane
View from above satellite
View from above satellite

Ground track
Ground track

The orbit data is extracted from the following two-line orbital elements,

1 15354U 84108B   15184.42187581  .00004105  00000-0  12479-3 0  9990
2 15354 057.0123 321.0808 0013387 167.5607 192.5777 15.36228271688056
Epoch (UTC): 03 July 2015 10:07:30
Eccentricity: 0.0013387
inclination: 57.0123°
perigee height: 448 km
apogee height: 466 km
right ascension of ascending node: 321.0808°
argument of perigee: 167.5607°
revolutions per day: 15.36228271
mean anomaly at epoch: 192.5777°
orbit number at epoch: 68805

The dashed part of the orbit path shows where the satellite is in the earth's shadow,  

DLR